SCP
0 0 0 0 0 0 0 0 0 0 0 0 0 0 0 0 0 0 0 1 1 1 2 2 1 1 1 1 1 1 1 1 1 1 1 1 0 0 0 0 0 0 0
0 0 0 0 0 0 0 0 0 0 0 0 0 0 0 0 0 0 0 1 1 1 2 2 2 2 1 1 1 1 1 1 1 1 1 1 1 1 1 0 0 0 0
0 0 0 1 1 1 1 1 1 1 1 1 0 0 0 0 0 0 0 0 1 1 1 2 2 2 1 1 1 1 1 1 1 1 1 1 1 1 1 1 0 0 0
1 1 1 1 1 1 1 1 1 1 1 1 1 1 1 0 0 0 0 1 1 1 1 1 1 1 1 1 1 1 1 1 1 1 1 1 1 1 1 1 1 1 1
1 1 1 1 1 1 1 1 1 1 1 1 1 1 1 1 0 0 0 1 1 1 1 1 1 1 1 1 1 1 1 1 1 1 1 1 1 1 1 1 1 1 1
1 1 1 1 1 1 1 0 1 1 1 0 0 1 1 0 0 0 0 0 1 1 1 1 1 1 1 1 1 1 1 1 1 1 1 1 1 1 1 1 1 1 1
1 1 1 1 1 1 1 0 1 1 0 0 0 0 0 0 0 0 0 0 0 1 1 1 1 1 1 1 1 1 1 1 1 1 1 1 1 1 1 1 1 1 1
1 1 1 1 0 1 1 1 1 0 0 0 0 1 1 1 0 0 0 0 0 0 0 1 1 1 1 0 0 1 1 1 1 1 1 1 1 1 1 1 1 1 1
1 1 1 1 1 1 1 1 1 1 1 1 1 1 1 1 1 0 0 0 0 0 0 0 1 1 1 0 0 1 1 1 1 1 1 1 1 1 1 1 1 1 1
1 1 1 1 1 1 1 1 1 1 1 1 1 1 2 2 1 1 0 0 0 0 0 0 1 1 1 1 1 1 1 1 1 1 1 1 1 1 1 1 1 1 1
1 2 2 2 2 2 1 1 1 1 1 1 1 1 1 1 1 1 0 0 0 0 0 0 0 1 1 1 1 1 1 1 1 1 1 1 1 1 1 1 1 1 1
1 2 2 2 2 2 2 2 2 2 1 1 1 1 1 1 1 0 0 0 0 0 0 0 0 0 0 1 1 1 1 1 1 1 1 1 1 1 1 1 1 1 1
1 2 2 2 2 3 2 2 2 2 2 1 1 1 1 1 1 0 0 0 0 0 0 0 0 0 0 0 1 1 1 1 0 0 0 1 1 1 1 1 1 1 1
2 2 2 2 2 3 3 2 2 2 2 1 1 1 1 1 1 1 0 0 0 0 0 0 0 0 0 0 0 0 1 0 0 0 0 0 0 0 0 0 1 1 1
2 2 2 2 2 2 2 2 2 2 2 1 1 1 1 1 1 1 0 0 0 0 0 0 0 0 0 0 0 0 0 0 0 0 0 0 0 0 0 0 0 0 0
2 2 2 2 2 2 2 2 2 1 1 1 1 1 1 0 0 0 0 0 0 0 0 0 0 0 0 0 0 0 0 0 0 0 0 0 0 0 0 0 0 0 0
1 1 2 2 2 3 2 2 2 1 1 1 0 0 0 0 0 0 0 0 0 0 0 0 0 0 0 0 0 0 0 0 0 0 0 0 0 0 0 0 0 0 0
1 1 2 2 2 3 2 2 1 1 0 0 0 0 0 0 0 0 0 0 0 0 0 0 0 0 0 0 0 0 0 0 0 0 0 0 0 0 0 0 0 0 0
2 2 2 2 2 2 2 1 1 1 1 1 1 0 0 0 0 0 0 0 0 0 0 0 0 0 0 0 0 0 0 0 0 0 0 0 0 0 0 0 0 0 0
2 2 2 2 2 2 1 1 1 1 1 1 1 1 1 0 0 0 0 0 0 0 0 0 0 0 0 0 0 0 0 0 0 0 0 0 0 0 0 0 0 0 0
4 3 3 2 2 2 2 2 2 3 3 3 2 2 1 1 1 0 0 0 0 0 0 0 0 0 1 1 1 1 1 1 0 0 0 0 0 0 0 0 0 0 0
6 5 4 3 3 3 3 2 3 3 3 4 3 3 2 2 1 1 1 1 1 1 1 1 1 1 1 2 2 2 2 1 1 1 0 0 0 0 0 0 0 0 0
6 7 6 4 4 3 3 2 2 3 3 4 4 3 3 2 2 2 1 1 1 1 2 2 2 3 3 3 3 3 3 2 2 1 1 0 0 0 0 0 0 0 0
5 6 6 4 3 3 2 2 1 2 3 3 3 3 3 3 2 2 2 2 2 2 2 2 3 3 3 3 4 4 4 3 3 2 2 1 1 0 0 0 0 0 0
4 4 4 3 2 2 2 1 1 2 2 3 3 3 3 3 2 2 2 3 3 3 3 2 2 2 2 2 3 4 4 5 4 4 3 3 3 2 1 0 0 0 0
3 3 3 2 2 2 1 1 1 2 2 3 3 2 3 3 2 2 3 3 3 3 3 3 2 1 1 1 2 3 5 5 6 6 5 5 4 2 1 0 0 0 0
Wind_Speed
2 2 1 1 1 1 1 1 1 1 2 1 1 1 2 3 3 3 2 8 10 10 12 12 13 13 13 13 13 12 12 11 11 10 11 11 11 11 11 11 10 10 10
2 2 2 1 1 1 1 1 2 1 1 1 1 1 1 2 3 3 2 4 7 8 9 10 12 12 12 12 12 11 11 11 11 10 10 11 11 11 11 11 11 10 10
3 2 2 1 1 1 1 1 1 2 1 1 1 1 1 2 3 3 3 2 3 6 7 7 8 9 10 11 11 11 11 10 10 10 10 10 10 11 11 11 11 11 10
3 2 2 1 1 1 1 2 1 2 1 1 1 0 1 1 2 3 2 2 2 2 4 6 5 5 7 8 9 10 10 10 10 10 9 9 9 9 10 11 11 11 11
2 2 2 1 1 1 1 1 2 2 2 1 1 1 1 1 2 2 2 2 2 1 1 2 3 3 4 4 6 7 9 9 9 9 9 9 9 9 9 9 9 9 10
2 2 1 1 2 2 1 1 2 1 1 1 2 2 1 1 1 2 2 2 2 2 1 1 0 1 2 2 3 4 5 6 7 8 9 9 9 8 8 8 8 8 9
2 2 1 1 1 2 1 2 2 2 1 2 2 2 3 3 2 1 2 2 2 2 2 2 1 1 1 1 0 1 2 3 4 5 6 6 6 6 6 7 7 7 7
2 2 2 1 1 1 2 2 2 1 1 1 2 2 1 3 3 3 2 2 2 2 2 3 2 2 1 1 2 2 0 2 2 3 3 4 4 3 4 4 5 6 6
2 2 2 2 1 2 1 1 2 3 1 1 1 3 3 2 0 2 3 3 3 3 2 2 2 1 1 1 1 2 3 2 2 1 2 2 2 3 3 3 3 4 5
2 2 2 2 2 2 1 1 1 2 2 1 0 0 2 4 3 1 2 3 4 4 3 3 2 2 2 2 3 5 5 4 3 2 2 2 3 2 2 2 2 3 4
1 2 2 2 2 1 1 1 1 1 1 2 1 1 1 2 2 3 2 1 3 3 3 3 2 3 3 2 2 5 7 6 6 5 4 3 3 3 3 3 3 3 4
1 1 1 1 1 1 1 1 1 1 1 1 1 1 2 2 2 2 3 2 1 1 2 2 2 2 3 3 4 7 8 7 7 6 6 5 5 4 5 5 4 4 4
1 0 1 1 1 1 1 1 1 1 1 1 1 1 2 2 2 3 4 3 2 1 1 2 2 2 3 3 3 7 7 8 8 7 7 7 8 8 8 7 7 7 7
2 2 2 1 1 1 1 2 1 0 1 1 1 1 1 1 2 3 4 5 3 1 1 1 1 2 2 2 4 6 5 8 8 8 8 8 8 9 9 9 8 8 8
2 2 2 2 1 1 2 2 1 1 1 1 1 1 1 1 2 2 3 4 5 3 1 1 1 0 1 2 3 2 3 6 8 8 8 9 9 9 8 9 9 8 8
2 3 2 2 2 2 2 2 2 1 2 2 1 3 2 1 1 2 2 2 2 4 3 2 1 2 1 2 4 2 3 6 7 7 8 8 9 8 9 9 9 9 8
3 3 3 3 2 2 2 2 2 2 3 2 2 3 2 2 2 1 2 2 2 3 4 1 1 1 2 2 2 2 2 2 3 6 7 7 8 8 8 8 8 8 8
3 3 3 2 2 3 2 3 2 2 3 2 2 2 2 2 2 1 2 3 2 2 4 4 2 1 2 3 3 2 2 2 2 5 6 6 7 7 7 7 7 7 7
3 3 3 3 3 3 2 2 3 3 3 2 2 2 1 2 2 1 2 3 2 3 3 5 3 1 1 2 2 2 2 1 2 3 4 4 5 5 6 6 6 6 6
4 3 3 3 3 3 3 3 3 3 3 3 2 2 2 2 2 2 3 3 3 4 3 4 3 2 2 2 3 2 1 1 0 1 2 2 3 3 4 4 5 5 5
5 4 4 3 3 3 3 4 3 4 3 2 2 2 2 3 3 3 3 4 5 4 3 3 3 2 2 2 2 2 2 1 1 0 1 0 0 0 0 1 3 4 3
4 4 4 3 3 2 4 6 5 4 3 3 2 2 3 4 4 5 5 6 7 6 5 4 3 3 3 3 2 3 3 2 1 1 1 1 1 1 1 1 3 4 4
4 4 4 4 3 3 6 7 7 4 3 2 2 2 2 3 3 3 4 5 3 4 6 5 5 4 4 5 5 3 3 3 3 3 3 1 1 2 2 3 5 5 5
4 4 4 4 4 3 6 6 6 4 3 2 2 2 2 2 2 3 3 3 2 1 2 3 4 5 4 5 5 5 5 2 1 1 3 2 2 2 2 2 5 7 6
4 3 4 5 4 3 5 6 6 3 2 2 2 2 3 2 2 4 4 3 2 1 1 2 3 4 5 6 6 4 3 3 1 2 2 2 2 1 1 2 4 7 8
4 4 3 3 4 3 4 5 6 3 3 2 1 1 2 3 4 5 4 4 3 1 1 1 1 1 1 3 5 5 5 4 2 2 3 3 2 2 1 2 2 2 4
Wind_Direction
150 160 175 181 197 188 185 186 195 188 172 187 165 140 145 148 158 161 177 182 182 187 187 189 194 196 195 196 197 198 199 201 202 204 207 207 207 207 207 210 211 209 209
146 153 164 173 192 189 192 178 177 157 142 126 117 115 133 147 151 158 166 176 182 187 192 197 198 199 198 200 203 203 202 205 205 206 210 212 213 212 213 213 213 212 211
156 155 150 158 189 176 152 125 124 108 119 122 121 143 147 143 152 165 162 172 187 191 189 191 196 201 203 206 207 206 205 207 208 207 210 213 215 216 215 215 215 215 215
150 146 149 177 182 131 110 115 116 107 111 114 110 115 118 131 149 154 159 167 172 190 201 194 195 195 202 206 209 209 207 208 210 211 210 213 215 217 218 219 218 218 218
143 140 149 168 128 102 105 125 112 134 136 126 115 95 93 121 138 155 157 162 162 161 165 179 169 172 197 209 212 211 209 207 207 210 212 213 215 217 217 220 221 221 217
136 124 126 118 117 105 86 95 110 114 138 137 94 65 48 77 119 142 158 135 123 128 110 104 157 205 200 207 203 207 210 204 206 209 214 215 216 218 219 219 222 224 223
133 124 119 106 107 120 139 125 119 105 92 108 89 56 29 40 58 64 95 97 102 114 111 96 78 33 322 319 174 187 207 209 204 196 196 203 209 209 212 215 218 219 219
135 134 127 126 114 104 86 107 118 117 146 138 129 109 50 21 28 41 64 86 88 88 88 88 79 65 19 358 24 60 171 219 195 181 179 180 188 191 196 204 210 208 210
130 116 118 116 109 115 126 137 137 142 163 227 156 144 148 176 37 21 44 60 68 73 71 78 69 54 51 23 3 28 59 77 108 145 154 152 160 164 167 171 172 188 188
115 114 114 116 111 109 120 144 134 147 147 177 300 140 159 154 148 118 32 39 53 60 55 67 49 44 44 32 41 52 63 66 65 76 114 132 125 123 140 149 161 167 169
98 118 116 116 115 119 133 137 129 136 150 167 179 151 95 93 117 140 140 65 50 46 58 62 60 51 41 36 41 58 63 64 64 65 71 84 94 100 101 105 111 125 135
66 95 103 100 117 134 144 151 145 148 170 172 174 162 159 153 159 144 145 139 108 49 52 52 57 49 41 32 58 69 66 62 62 64 67 72 82 91 89 86 90 95 105
138 170 125 123 148 170 137 118 125 139 157 157 169 170 174 179 161 147 140 144 135 119 62 40 39 51 54 34 42 68 72 66 62 65 68 73 76 79 81 78 78 81 82
178 170 147 146 143 120 104 98 101 111 87 98 115 136 145 166 149 151 150 145 135 114 81 78 33 48 61 54 56 59 64 71 70 71 73 77 78 78 77 77 75 74 73
155 139 134 124 112 98 97 98 79 64 77 74 72 80 92 105 124 132 139 150 148 154 175 179 117 73 105 86 76 63 65 78 78 75 75 79 81 80 80 79 77 74 71
127 122 115 112 105 93 95 97 86 71 78 62 73 71 65 76 100 110 135 137 135 144 153 172 170 178 156 122 105 77 73 85 83 83 84 86 88 89 85 81 78 76 74
141 138 130 115 107 101 101 99 94 87 85 66 61 77 69 80 95 102 110 114 115 122 131 131 112 137 131 132 112 90 78 65 79 89 91 91 90 87 83 81 81 78 77
146 143 133 120 115 105 99 101 101 88 91 88 81 83 75 89 85 99 109 116 125 130 139 145 146 146 150 157 142 127 114 102 90 92 95 94 91 90 86 85 85 85 80
143 136 130 128 121 110 101 99 101 93 88 92 95 97 96 100 92 96 114 120 122 118 125 142 152 146 136 144 120 117 113 86 116 113 105 101 102 99 94 91 88 86 83
141 138 131 127 124 115 107 103 100 94 86 74 75 87 95 115 133 132 123 123 123 117 119 132 132 135 136 140 127 130 109 65 120 116 103 114 114 110 110 111 108 103 94
147 144 131 123 123 121 122 123 119 112 103 86 65 64 80 94 107 123 136 140 135 134 134 137 149 138 141 147 168 167 155 146 354 151 89 31 92 25 224 161 147 142 132
146 136 138 138 139 138 133 134 130 122 118 111 95 66 72 74 84 90 119 142 152 155 161 163 174 174 186 178 160 158 150 140 218 229 142 264 175 237 256 244 214 189 181
148 144 149 143 146 151 139 136 134 132 129 128 127 113 90 77 81 89 94 103 126 154 166 169 173 189 185 185 166 163 172 172 199 194 142 232 243 242 248 236 219 214 210
151 159 162 155 148 157 145 141 135 126 126 136 138 134 120 102 106 112 103 90 83 112 166 169 181 194 189 180 175 172 173 160 124 151 145 180 223 237 246 239 232 221 222
154 164 164 156 152 165 160 147 137 128 127 132 136 132 136 136 147 132 117 109 82 8 25 137 163 175 176 174 163 136 136 130 167 229 187 168 200 225 260 252 240 227 227
153 146 142 152 158 171 177 159 147 141 140 139 129 143 156 154 151 145 142 143 150 203 133 94 90 94 141 169 173 172 169 164 172 222 212 168 173 151 257 266 234 225 229